Location: Chrzanów
(50.1411°N, 19.4039°E)
Time: 16:38:19
(UTC+01:00)

ISS - Visible Passes

Search period start: 20 November 2017 00:00
Search period end: 30 November 2017 00:00
Orbit: 402 x 407 km, 51.6° (Epoch: 21 November)

Date Brightness Start Highest point End Pass type
(mag) Time Alt. Az. Time Alt. Az. Time Alt. Az.
28 Nov -1.4 18:16:30 10° SSW 18:17:35 18° SSW 18:17:35 18° SSW visible
29 Nov -2.1 17:24:43 10° S 17:27:12 20° SE 17:27:28 20° SE visible
29 Nov -0.4 19:00:01 10° WSW 19:00:07 11° WSW 19:00:07 11° WSW visible
